• MPC Preparation (Info)

  • MPEC 2010-H52 : COMET C/2010 F1 (BOATTINI)

    The following Minor Planet Electronic Circular may be linked-to from your own Web pages, but must not otherwise be redistributed electronically.

    A form allowing access to any MPEC is at the bottom of this page.


    Read MPEC 2010-H51 Read MPEC 2010-H53


    M.P.E.C. 2010-H52                                Issued 2010 Apr. 24, 16:43 UT
    
         The Minor Planet Electronic Circulars contain information on unusual
             minor planets and routine data on comets.  They are published
       on behalf of Commission 20 of the International Astronomical Union by the
              Minor Planet Center, Smithsonian Astrophysical Observatory,
                              Cambridge, MA 02138, U.S.A.
    
                 Prepared using the Tamkin Foundation Computer Network
    
                                  MPC@CFA.HARVARD.EDU
           URL https://www.minorplanetcenter.org/iau/mpc.html  ISSN 1523-6714
    
                              COMET C/2010 F1 (BOATTINI)
    
    Observations:
        CK10F010  C2010 04 03.82291 10 13 28.75 +39 40 41.5          18.4 N EH052473
        CK10F010  C2010 04 03.82569 10 13 28.55 +39 40 39.0          18.4 N EH052473
        CK10F010  C2010 04 14.94328 10 05 06.96 +36 54 10.3          18.7 N EH052585
        CK10F010  C2010 04 14.94748 10 05 06.91 +36 54 05.9          18.7 N EH052585
        CK10F010  C2010 04 14.95203 10 05 06.55 +36 54 03.8          18.7 N EH052585
        CK10F010  C2010 04 21.19860 10 01 59.19 +35 18 51.2          19.2 N EH052H45
        CK10F010  C2010 04 21.20142 10 01 59.16 +35 18 45.7          19.1 N EH052H45
        CK10F010  C2010 04 21.20319 10 01 59.15 +35 18 44.5          19.2 N EH052H45
        CK10F010  C2010 04 21.20582 10 01 59.12 +35 18 42.4          19.3 N EH052H45
    
    Observer details:
    473 Remanzacco.  Observers L. Donato, V. Gonano, E. Guido, G. Sostero.  0.45-m
        f/4.4 Newtonian reflector + CCD.
    585 Kiev comet station.  Observer A. Baransky.  0.7-m f/4 reflector + CCD.
    H45 Arkansas Sky Obs., Petit Jean Mountain South.  Observer P. C. Sherrod.
        0.51-m f/4.3 astrograph + CCD.
    
    Orbital elements:
        C/2010 F1 (Boattini)
    Epoch 2009 Nov. 25.0 TT = JDT 2455160.5
    T 2009 Nov. 10.61664 TT                                 MPC
    q   3.5876638            (2000.0)            P               Q
    z  +0.0147024      Peri.  127.52389     -0.49621806     -0.83328189
     +/-0.0000000      Node   344.39050     +0.16150273     +0.18724719
    e   0.9472527      Incl.   64.93486     +0.85304426     -0.52017284
    Residuals in seconds of arc
    100220 703  0.6-  1.0-    100319 372  0.1-  0.1-    100406 H45  0.0   0.7+
    100220 703  0.2+  0.6+    100319 372  0.3-  0.5-    100406 H45  0.5+  0.5-
    100220 703  0.1+  0.4+    100319 215  1.0-  0.9-    100406 H45  0.1-  0.1+
    100220 703  0.6-  1.4+    100319 215  0.6-  0.9-    100406 104  0.4-  0.0
    100317 703  1.3+  0.1-    100319 215  0.0   1.0-    100406 157  0.3+  0.3-
    100317 703  0.4+  0.0     100319 473  0.0   0.2-    100406 046  0.7-  0.1-
    100317 703  0.3+  1.3+    100319 473  0.2+  0.2-    100406 104  0.1+  0.5-
    100317 703  0.6+  0.5+    100320 473  0.1-  0.1-    100406 157  1.2-  0.2-
    100317 703  0.3+  1.0+    100320 473  0.1-  0.2-    100406 046  0.2-  1.2+
    100317 703  0.2+  0.3+    100321 G96  0.0   0.4+    100406 157  0.3-  0.3-
    100317 703  0.2+  0.9+    100321 G96  0.1-  0.5+    100406 104  0.4-  0.2-
    100317 G96  0.3-  0.0     100321 G96  0.1-  0.2-    100406 160  0.5-  0.1-
    100317 G96  0.6-  0.2+    100321 704  0.2+  1.2-    100406 160  0.4-  0.1-
    100317 G96  0.3-  0.5-    100321 704  0.2+  0.2-    100406 160  0.6-  0.5-
    100317 G96  0.2-  0.1-    100321 704  0.1-  0.4+    100407 B82  0.8-  0.1-
    100317 703  1.3+  0.3+    100321 704  0.7+  0.2-    100407 B82  0.9+  0.3+
    100317 G96  0.3-  0.6-    100321 704  0.6-  0.0     100407 B82  0.7+  0.5-
    100317 G96  0.3-  0.7-    100321 372  0.4+  0.9+    100407 046  0.4+  1.1+
    100317 G96  0.3-  0.5-    100321 372  0.2-  0.5-    100407 046  0.7+  0.1+
    100317 G96  0.6-  0.3-    100322 J01  0.1+  0.6+    100407 046  0.6-  1.3-
    100317 703  0.1-  1.4+    100322 J01  0.3-  0.2+    100407 046  1.4+  0.2-
    100317 703 (1.0+  2.1+)   100322 J01  0.2+  0.3+    100407 046  0.2+  0.1+
    100317 703  0.9+  0.8+    100323 H45  0.3-  0.1+    100407 A71  0.2+  0.4-
    100317 703  0.6+  1.2+    100323 H45  0.6+  1.6+    100407 A71  0.1+  0.2+
    100317 A13  0.3-  0.2-    100323 H45  1.2+  0.6-    100408 H45  0.1-  0.4-
    100317 C12  1.0-  0.5-    100323 H45  1.2+  0.1+    100408 H45  0.1-  0.7-
    100317 A13  0.6+  0.1-    100323 H45  0.9+  0.5+    100408 H45  0.5-  0.3+
    100317 C12  0.1+  1.6-    100323 H45  0.2+  0.2-    100408 H45  1.2-  0.2+
    100317 C12  0.6+  0.2-    100323 H45  0.2-  0.0     100408 H45  0.3-  0.4-
    100317 B09  0.2+  0.2-    100323 204  0.0   0.1-    100408 H45  0.3-  0.6-
    100317 473  0.0   0.0     100323 204  0.2-  0.1-    100408 235  0.5-  0.3+
    100317 473  0.1-  0.1-    100324 118  1.7-  1.8-    100409 B42  0.1+  0.0
    100317 B09  0.7+  0.1-    100324 118  0.6-  0.4-    100409 B42  0.5+  0.3+
    100317 B09  0.7+  0.2+    100324 118  0.8-  0.4-    100409 B42  0.6+  0.2+
    100318 H75  0.5-  0.4-    100324 118  0.2-  0.3-    100409 160  0.4+  0.9+
    100318 H75  0.4-  0.3-    100324 118  0.7-  0.5-    100409 160  0.1-  0.5+
    100318 H75  0.5-  0.7-    100324 850  0.3+  0.3+    100409 160  0.3+  0.4+
    100318 H26  0.3-  0.8+    100324 850  0.4+  0.0     100410 585 (3.8+  0.0 )
    100318 H26  0.3-  0.4+    100324 850  0.0   0.0     100411 H45  0.0   0.3-
    100318 H26  0.3-  0.6+    100326 213  0.3+  0.5-    100411 H45  0.4+  0.1+
    100318 926  0.2+  0.1+    100326 213  0.1-  0.3-    100411 H45  0.2+  0.1+
    100318 926  0.1+  0.1-    100326 213  0.6-  0.5-    100411 H45  0.7-  0.2+
    100318 926  0.5-  0.4-    100326 B49 (2.3+  1.3+)   100411 703  0.5+  0.1-
    100318 H01  0.4-  0.3-    100326 B49  0.7+  1.6+    100411 H45  0.6-  0.5+
    100318 H05  0.6+  0.6+    100327 H75  0.6-  0.0     100411 703  0.7+  0.3+
    100318 H01  0.4-  0.2-    100327 H75  0.9+  0.9+    100411 H45  0.0   0.3+
    100318 H05  0.3+  0.8+    100327 H75  0.2-  0.4-    100411 H45  0.9-  0.1+
    100318 H01  0.4-  0.3-    100327 B18  0.1-  0.4+    100411 703  0.4-  0.0
    100318 G58  0.4+  0.1-    100327 B18  0.1-  1.3+    100411 703  0.8-  0.0
    100318 H05  0.7+  0.2-    100327 B18  1.0-  0.3-    100412 H75  0.1-  0.4+
    100318 H21  0.6-  0.6-    100327 B18  0.1-  0.3+    100412 H75  0.0   0.3-
    100318 G58  0.1+  0.4+    100327 B18  0.4-  0.7+    100412 H75  0.6-  0.8-
    100318 H21  0.2-  0.3-    100327 B18  0.1-  0.4+    100412 H45  1.0+  0.7-
    100318 H36  0.1+  0.1-    100329 B18  1.2+  0.2+    100412 H45  0.7+  0.7+
    100318 H10  0.0   0.0     100329 B18  0.9+  0.3+    100412 H45  1.9+  0.2-
    100318 H21  0.2+  0.1-    100329 118  0.9-  0.1-    100412 H45  0.8+  0.4+
    100318 H36  0.1-  0.1+    100329 118  0.6-  0.3-    100412 H45  0.2-  0.3+
    100318 H01  0.4-  0.4-    100330 213  0.2+  0.2-    100412 H45  0.1+  0.6+
    100318 H10  0.0   0.1+    100330 213  0.6+  0.4-    100413 585  1.4+  1.2+
    100318 G58  0.3-  0.7-    100331 J01  0.2+  0.3+    100413 585  0.4-  0.5+
    100318 H36  0.0   0.5-    100331 J01  0.2-  0.3-    100413 585  1.0+  0.1+
    100318 H10  0.1+  0.0     100331 J01  0.7-  0.2-    100413 585  0.1-  0.2-
    100318 H36  0.1+  0.0     100331 B18  0.4+  0.9-    100413 585  0.6-  0.7-
    100318 H36  0.0   0.4-    100331 B18  1.4+  1.3-    100414 152 (1.8+  4.3+)
    100318 H06  0.3+  0.1+    100331 B18  0.4-  0.5+    100414 152 (3.4-  5.2-)
    100318 H06  0.4+  0.2+    100331 B18  0.2-  0.1-    100414 585  0.4-  0.1-
    100318 H06  0.6+  0.4+    100331 B18  0.4-  0.2-    100414 585  0.8+  0.7-
    100318 H21  0.2-  0.2-    100402 235  0.1-  0.2+    100414 585  1.6-  1.4+
    100318 H21  0.1-  0.1-    100403 900  0.6-  1.6+    100415 H45  0.7+  1.2+
    100318 H21  0.3-  0.3-    100403 900  0.1-  0.9+    100415 H45  0.2+  1.2-
    100318 854  0.2+  0.3+    100403 349  0.4+  1.2+    100415 H45  0.2+  0.3-
    100318 854  0.5+  0.2-    100403 349  0.6+  1.4+    100415 H45  0.5+  0.8-
    100318 H06  0.4+  0.1-    100403 473  0.2+  0.1-    100415 H45  0.3-  0.7+
    100318 H06  0.1+  0.7+    100403 473  0.3-  0.2-    100415 H45  0.2-  0.1-
    100318 A77  1.0+  0.1+    100404 473  0.3-  0.3-    100415 H45  0.0   0.7-
    100318 A77  1.2+  0.4+    100404 473  0.1-  0.1-    100416 703  0.7-  0.6+
    100318 A77  0.7+  0.4-    100405 900  1.2-  0.3-    100416 703  0.1-  0.5+
    100319 H45  0.6-  0.1+    100405 900  1.1-  0.1+    100416 703  1.2-  0.7-
    100319 H45  0.1+  0.1-    100405 204  0.6-  0.0     100416 703  0.8+  0.4+
    100319 H45  0.4+  0.0     100405 160  1.9-  1.4+    100417 B82  1.0+  0.1+
    100319 H45  0.4+  0.0     100405 160  1.1-  1.5+    100417 B82  0.1+  0.7-
    100319 H45  0.3+  0.3-    100405 160  0.9-  0.3+    100417 B82  0.2+  0.1-
    100319 H45  0.6+  0.6-    100405 473  0.3-  0.2-    100418 235  0.2+  0.2+
    100319 H45  0.1-  1.2-    100405 473  0.5-  0.2-    100418 B09  1.0+  0.6-
    100319 D93  0.3-  1.0-    100405 204  0.1-  0.1+    100418 B09  0.4+  0.2-
    100319 D93  1.1-  0.1-    100406 H45  0.4-  1.0-    100421 H45  0.6-  1.4+
    100319 D93 (1.0-  2.5-)   100406 H45  0.0   0.2+    100421 H45  0.1-  1.5-
    100319 349  0.4-  0.2-    100406 H45  0.6+  0.3+    100421 H45  0.3+  1.1-
    100319 349  0.2-  0.0     100406 H45  0.8+  0.1-    100421 H45  0.8+  0.8-
    
         The "original" and "future" barycentric values of 1/a are +0.014902
    and +0.014613 (+/- 0.000000) AU^-1, respectively.
    
    Brian G. Marsden             (C) Copyright 2010 MPC           M.P.E.C. 2010-H52
    

    Read MPEC 2010-H51 Read MPEC 2010-H53


    MPEC number:

    Enter an MPEC number in one of the following forms:

    • 1997-B01 (the full form)
    • J97B01 (the packed version of the full form)
    • B01 (the abbreviated form)